This is the latest recevied weather packets stored in our database for station/object W4SNA-4. If no packets are shown the sender has not sent any weather packets the latest 1 day(s).
| Time | Temp. | Humidity | Pressure | Rain* | Wind** | Luminosity | Snow |
|---|---|---|---|---|---|---|---|
| 1778015436 | 25° C | 41% | 1008.6 hPa | 0 mm | 0 m/s | - | - |
| 1778015136 | 25° C | 40% | 1008.6 hPa | 0 mm | 0 m/s | - | - |
| 1778014836 | 25° C | 40% | 1008.6 hPa | 0 mm | 0 m/s | - | - |
| 1778014536 | 25° C | 41% | 1008.6 hPa | 0 mm | 0 m/s | - | - |
| 1778014236 | 25° C | 43% | 1008.7 hPa | 0 mm | 0 m/s | - | - |
| 1778013945 | 25° C | 40% | 1008.7 hPa | 0 mm | 0 m/s | - | - |
| 1778013642 | 25° C | 40% | 1008.7 hPa | 0 mm | 0 m/s | - | - |
| 1778013338 | 25° C | 40% | 1009 hPa | 0 mm | 0 m/s | - | - |
| 1778013036 | 25° C | 39% | 1009 hPa | 0 mm | 0 m/s | - | - |
| 1778012736 | 25° C | 40% | 1009 hPa | 0 mm | 0 m/s | - | - |
| 1778012436 | 25° C | 41% | 1009.1 hPa | 0 mm | 0 m/s | - | - |
| 1778012136 | 25° C | 40% | 1009.1 hPa | 0 mm | 0 m/s | - | - |
| 1778011836 | 25° C | 40% | 1009.1 hPa | 0 mm | 0 m/s | - | - |
| 1778011540 | 25° C | 40% | 1009.2 hPa | 0 mm | 0 m/s | - | - |
| 1778011236 | 25° C | 41% | 1009.2 hPa | 0 mm | 0 m/s | - | - |
| 1778010936 | 25° C | 41% | 1009.2 hPa | 0 mm | 0 m/s | - | - |
| 1778010636 | 25° C | 39% | 1009.3 hPa | 0 mm | 0 m/s | - | - |
| 1778010336 | 25° C | 41% | 1009.3 hPa | 0 mm | 0 m/s | - | - |
| 1778010036 | 25° C | 43% | 1009.3 hPa | 0 mm | 0 m/s | - | - |
| 1778009742 | 25° C | 41% | 1009.7 hPa | 0 mm | 0 m/s | - | - |
| 1778009436 | 25° C | 41% | 1009.7 hPa | 0 mm | 0 m/s | - | - |
| 1778009136 | 25° C | 41% | 1009.7 hPa | 0 mm | 0 m/s | - | - |
| 1778008643 | 25° C | 40% | 1009.9 hPa | 0 mm | 0 m/s | - | - |
| 1778008341 | 25° C | 40% | 1009.9 hPa | 0 mm | 0 m/s | - | - |
| 1778008037 | 25° C | 39% | 1010 hPa | 0 mm | 0 m/s | - | - |
* Rain latest hour (hover to see other rain measurements)
** Current wind speed in m/s (hover to see current wind gust speed)